Location: Buckeye Ditch
(40.9104°N, 122.9517°W)
Time: 13:22:26
(UTC+00:00)

Explorer 7 - Pass Details

Date: 21 May 2025
Orbit: 445 x 571 km, 50.3° (Epoch: 22 June)

Event Time Altitude Azimuth Distance (km) Brightness Sun altitude
Rises 16:23:51 0° 299° (WNW) 2,660 9.9 38.5°
Reaches altitude 10° 16:26:06 10° 293° (WNW) 1,789 9.1 38.9°
Maximum altitude 16:30:01 46° 220° (SW) 739 7.7 39.6°
Drops below altitude 10° 16:34:03 10° 147° (SSE) 1,842 10.1 40.4°
Sets 16:36:23 0° 141° (SE) 2,747 10.9 40.8°
